Location: Br�ttisellen
(47.4227°N, 8.6287°E)
Time: 02:22:33
(UTC+00:00)

NOSS 3-4 (C) - Pass Details

Date: 09 April 2020
Orbit: 894 x 1319 km, 63.4° (Epoch: 01 June)

Event Time Altitude Azimuth Distance (km) Brightness Sun altitude
Rises 19:25:35 0° 317° (NW) 3,841 8.1 -13.3°
Reaches altitude 10° 19:28:10 10° 313° (NW) 2,943 7.3 -13.7°
Maximum altitude 19:34:59 55° 238° (WSW) 1,390 4.5 -14.7°
Drops below altitude 10° 19:42:29 10° 164° (SSE) 3,218 5.8 -15.8°
Enters shadow 19:42:39 - 164° (SSE) 3,276 5.8 -15.8°
